This is the latest recevied weather packets stored in our database for station/object WO5CID. If no packets are shown the sender has not sent any weather packets the latest 10 day(s).
| Time | Temp. | Humidity | Pressure | Rain* | Wind** | Luminosity | Snow |
|---|---|---|---|---|---|---|---|
| 1778168361 | 33.89° C | 39% | 1014.8 hPa | 0 mm | - | 853 W/m² | - |
| 1778168320 | 33.89° C | 39% | 1014.8 hPa | 0 mm | - | 853 W/m² | - |
| 1778168016 | 33.33° C | 38% | 1014.6 hPa | 0 mm | - | 847 W/m² | - |
| 1778167881 | 33.33° C | 38% | 1014.6 hPa | 0 mm | - | 834 W/m² | - |
| 1778167730 | 32.78° C | 38% | 1014.8 hPa | 0 mm | - | 827 W/m² | - |
| 1778167713 | 33.33° C | 38% | 1014.6 hPa | 0 mm | - | 834 W/m² | - |
| 1778167409 | 32.78° C | 38% | 1014.8 hPa | 0 mm | - | 827 W/m² | - |
| 1778167217 | 32.78° C | 39% | 1014.6 hPa | 0 mm | - | 814 W/m² | - |
| 1778167105 | 32.78° C | 39% | 1014.6 hPa | 0 mm | - | 814 W/m² | - |
| 1778166802 | 32.78° C | 38% | 1014.7 hPa | 0 mm | - | 806 W/m² | - |
| 1778166499 | 32.22° C | 39% | 1014.6 hPa | 0 mm | - | 789 W/m² | - |
| 1778166195 | 32.22° C | 38% | 1014.4 hPa | 0 mm | - | 778 W/m² | - |
| 1778165891 | 32.22° C | 40% | 1014.6 hPa | 0 mm | - | 769 W/m² | - |
| 1778165588 | 32.22° C | 39% | 1014.5 hPa | 0 mm | - | 753 W/m² | - |
| 1778165285 | 32.22° C | 38% | 1014.5 hPa | 0 mm | - | 741 W/m² | - |
| 1778164982 | 31.67° C | 40% | 1014.4 hPa | 0 mm | - | 713 W/m² | - |
| 1778164679 | 31.67° C | 40% | 1014.5 hPa | 0 mm | - | 714 W/m² | - |
| 1778164376 | 31.67° C | 42% | 1014.4 hPa | 0 mm | - | 692 W/m² | - |
| 1778164072 | 31.11° C | 41% | 1014.7 hPa | 0 mm | - | 679 W/m² | - |
| 1778163769 | 31.11° C | 43% | 1014.7 hPa | 0 mm | - | 661 W/m² | - |
| 1778163465 | 31.11° C | 45% | 1014.7 hPa | 0 mm | - | 648 W/m² | - |
| 1778163163 | 30° C | 49% | 1014.6 hPa | 0 mm | - | 623 W/m² | - |
| 1778162858 | 30° C | 50% | 1014.7 hPa | 0 mm | - | 603 W/m² | - |
| 1778162556 | 29.44° C | 54% | 1014.8 hPa | 0 mm | - | 591 W/m² | - |
| 1778162253 | 29.44° C | 52% | 1014.8 hPa | 0 mm | - | 571 W/m² | - |
* Rain latest hour (hover to see other rain measurements)
** Current wind speed in m/s (hover to see current wind gust speed)